Location: Sternwarte_Laufen
(47.9344°N, 12.9346°E)
Time: 03:46:25
(UTC+02:00)

ISS - Pass Details

Date: 11 July 2025
Orbit: 413 x 417 km, 51.6° (Epoch: 12 July)

Event Time Altitude Azimuth Distance (km) Brightness Sun altitude
Rises 23:34:17 0° 273° (W) 2,352 0.4 -16.6°
Reaches altitude 10° 23:36:26 10° 281° (W) 1,490 -0.5 -16.7°
Maximum altitude 23:39:39 43° 354° (N) 594 -2.5 -17.0°
Drops below altitude 10° 23:42:52 10° 68° (ENE) 1,494 -1.0 -17.2°
Sets 23:45:02 0° 76° (ENE) 2,358 0.0 -17.3°
